User: anonymous   Login
Location: Prairie Dale
(45.6972°N, 104.5033°W)
Time: 09:15:08
(UTC+00:00)
Language:

XW-2A - Orbit

View from above orbital plane
View from above orbital plane
View from above satellite
View from above satellite

Ground track
Ground track

The orbit data is extracted from the following two-line orbital elements,

1 40903U 15049E   22179.86743579  .00019061  00000-0  29589-3 0  9998
2 40903  97.1790 238.4187 0011197  82.8960  33.3436 15.53946314381034
Epoch (UTC): 28 June 2022 20:49:06
Eccentricity: 0.0011197
inclination: 97.1790°
perigee height: 397 km
apogee height: 413 km
right ascension of ascending node: 238.4187°
argument of perigee: 82.8960°
revolutions per day: 15.53946314
mean anomaly at epoch: 33.3436°
orbit number at epoch: 38103

The dashed part of the orbit path shows where the satellite is in the earth's shadow,  

DLR